TCJAM LTFM-LTFJ

Flight info

Callsign TCJAM
Flight time 0h 50m
Altitude 5000
Route IST1N/35L IST DCT D023G DCT AKBEZ/N0111F040
Aircraft C172/L-SFG/C

Departure

Time 2026-05-04 18:05
Airport İstanbul Airport (LTFM)

Arrival

Time 2026-05-04 18:55
Airport Istanbul Sabiha Gökçen International Airport (LTFJ)
Time Latitude Longitude Altitude Speed Heading
2026-05-04 17:35 41.27491 28.75139 274 ft 0 kts
2026-05-04 18:00 41.27458 28.75136 276 ft 14 kts 147°
2026-05-04 18:01 41.27409 28.75276 278 ft 20 kts 79°
2026-05-04 18:01 41.27324 28.75370 282 ft 18 kts 180°
2026-05-04 18:01 41.27197 28.75367 288 ft 17 kts 178°
2026-05-04 18:02 41.26975 28.75421 292 ft 11 kts 96°
2026-05-04 18:02 41.26990 28.75492 291 ft 5 kts 54°
2026-05-04 18:02 41.27047 28.75546 290 ft 11 kts 38°
2026-05-04 18:02 41.27051 28.75550 290 ft 0 kts 34°
2026-05-04 18:03 41.27052 28.75551 290 ft 3 kts 31°
2026-05-04 18:03 41.27154 28.75619 286 ft 29 kts 21°
2026-05-04 18:04 41.27451 28.75648 280 ft 62 kts 352°
2026-05-04 18:04 41.27905 28.75636 458 ft 67 kts 355°
2026-05-04 18:04 41.28754 28.75558 925 ft 64 kts 351°
2026-05-04 18:05 41.29178 28.75500 1173 ft 62 kts 353°
2026-05-04 18:05 41.29554 28.75394 1440 ft 54 kts 339°
2026-05-04 18:05 41.29895 28.75281 1666 ft 52 kts 348°
2026-05-04 18:05 41.30264 28.75183 1856 ft 56 kts 349°
2026-05-04 18:06 41.31084 28.74976 2226 ft 63 kts 351°
2026-05-04 18:06 41.31522 28.74868 2414 ft 65 kts 351°
2026-05-04 18:06 41.31973 28.74753 2591 ft 66 kts 351°
2026-05-04 18:07 41.32434 28.74631 2770 ft 67 kts 351°
2026-05-04 18:07 41.32888 28.74528 2945 ft 67 kts 353°
2026-05-04 18:07 41.33349 28.74433 3121 ft 67 kts 354°
2026-05-04 18:07 41.33805 28.74344 3296 ft 66 kts 355°
2026-05-04 18:08 41.34255 28.74257 3470 ft 65 kts 355°
2026-05-04 18:08 41.34697 28.74173 3642 ft 64 kts 355°
2026-05-04 18:08 41.35140 28.74089 3816 ft 63 kts 355°
2026-05-04 18:08 41.35571 28.74007 3991 ft 62 kts 355°
2026-05-04 18:09 41.36407 28.73849 4344 ft 59 kts 355°
2026-05-04 18:09 41.37208 28.73696 4692 ft 57 kts 355°
2026-05-04 18:10 41.37603 28.73621 4868 ft 56 kts 356°
2026-05-04 18:10 41.37999 28.73547 4979 ft 62 kts 355°
2026-05-04 18:10 41.38469 28.73466 4995 ft 73 kts 356°
2026-05-04 18:10 41.38997 28.73375 4994 ft 79 kts 355°
2026-05-04 18:11 41.39555 28.73277 4992 ft 82 kts 356°
2026-05-04 18:11 41.40140 28.73172 4991 ft 84 kts 355°
2026-05-04 18:11 41.40695 28.73070 4988 ft 78 kts 355°
2026-05-04 18:11 41.41220 28.72973 4988 ft 74 kts 355°
2026-05-04 18:12 41.41730 28.72877 4992 ft 72 kts 355°
2026-05-04 18:12 41.42228 28.72783 4992 ft 72 kts 355°
2026-05-04 18:12 41.42717 28.72691 4992 ft 71 kts 355°
2026-05-04 18:12 41.43212 28.72597 4987 ft 71 kts 355°
2026-05-04 18:13 41.43702 28.72504 4986 ft 70 kts 355°
2026-05-04 18:13 41.44188 28.72412 4986 ft 70 kts 355°
2026-05-04 18:13 41.45141 28.72082 4983 ft 71 kts 349°
2026-05-04 18:14 41.45608 28.71870 4983 ft 71 kts 347°
2026-05-04 18:14 41.46062 28.71596 4984 ft 76 kts 333°
2026-05-04 18:14 41.46265 28.70843 4990 ft 103 kts 285°
2026-05-04 18:15 41.45144 28.69245 4990 ft 136 kts 204°
2026-05-04 18:15 41.43350 28.68398 4985 ft 137 kts 206°
2026-05-04 18:15 41.42455 28.67925 4983 ft 137 kts 207°
2026-05-04 18:16 41.41576 28.67442 4983 ft 137 kts 208°
2026-05-04 18:16 41.40694 28.66948 4987 ft 136 kts 208°
2026-05-04 18:16 41.39823 28.66456 4990 ft 136 kts 208°
2026-05-04 18:17 41.38052 28.65455 4995 ft 139 kts 208°
2026-05-04 18:17 41.37151 28.64946 4991 ft 140 kts 208°
2026-05-04 18:17 41.35356 28.63932 4993 ft 141 kts 208°
2026-05-04 18:18 41.34450 28.63419 4995 ft 141 kts 208°
2026-05-04 18:18 41.33535 28.62900 4994 ft 141 kts 208°
2026-05-04 18:18 41.32629 28.62390 4994 ft 142 kts 208°
2026-05-04 18:18 41.31731 28.61882 4992 ft 141 kts 208°
2026-05-04 18:19 41.29915 28.60857 4994 ft 141 kts 208°
2026-05-04 18:19 41.29007 28.60344 4995 ft 141 kts 208°
2026-05-04 18:19 41.28100 28.59831 4995 ft 141 kts 208°
2026-05-04 18:20 41.27194 28.59321 4996 ft 141 kts 208°
2026-05-04 18:20 41.26280 28.58806 4997 ft 141 kts 208°
2026-05-04 18:20 41.25319 28.58534 5000 ft 142 kts 171°
2026-05-04 18:20 41.24419 28.58947 5003 ft 136 kts 141°
2026-05-04 18:21 41.23595 28.59592 4998 ft 136 kts 137°
2026-05-04 18:21 41.22790 28.60240 4995 ft 137 kts 137°
2026-05-04 18:21 41.21975 28.60890 4994 ft 137 kts 138°
2026-05-04 18:21 41.21150 28.61541 4995 ft 137 kts 138°
2026-05-04 18:22 41.20332 28.62186 4995 ft 137 kts 138°
2026-05-04 18:22 41.19511 28.62831 4996 ft 136 kts 138°
2026-05-04 18:22 41.18689 28.63475 4996 ft 137 kts 138°
2026-05-04 18:22 41.17867 28.64119 4996 ft 137 kts 139°
2026-05-04 18:23 41.17043 28.64765 4996 ft 137 kts 139°
2026-05-04 18:23 41.16227 28.65405 4996 ft 137 kts 139°
2026-05-04 18:23 41.15411 28.66045 4998 ft 136 kts 139°
2026-05-04 18:23 41.14587 28.66691 4997 ft 137 kts 139°
2026-05-04 18:24 41.13763 28.67336 4996 ft 137 kts 139°
2026-05-04 18:24 41.12933 28.67986 4996 ft 137 kts 138°
2026-05-04 18:24 41.12106 28.68631 4996 ft 137 kts 139°
2026-05-04 18:24 41.11288 28.69272 4994 ft 137 kts 138°
2026-05-04 18:25 41.10457 28.69922 4996 ft 137 kts 138°
2026-05-04 18:25 41.09631 28.70569 4996 ft 137 kts 139°
2026-05-04 18:25 41.08816 28.71207 4997 ft 137 kts 139°
2026-05-04 18:25 41.07987 28.71855 4998 ft 137 kts 139°
2026-05-04 18:26 41.07160 28.72500 4997 ft 137 kts 139°
2026-05-04 18:26 41.06343 28.73139 4999 ft 137 kts 139°
2026-05-04 18:26 41.05524 28.73777 4999 ft 137 kts 139°
2026-05-04 18:26 41.04700 28.74421 4999 ft 137 kts 139°
2026-05-04 18:27 41.03876 28.75064 4997 ft 138 kts 139°
2026-05-04 18:27 41.03039 28.75715 4997 ft 138 kts 138°
2026-05-04 18:27 41.02214 28.76360 4997 ft 138 kts 139°
2026-05-04 18:27 41.01394 28.77000 4996 ft 138 kts 139°
2026-05-04 18:28 41.00561 28.77648 4996 ft 137 kts 139°
2026-05-04 18:28 40.99736 28.78291 4997 ft 137 kts 139°
2026-05-04 18:28 40.98906 28.78938 4997 ft 138 kts 139°
2026-05-04 18:28 40.98083 28.79581 4999 ft 138 kts 139°
2026-05-04 18:29 40.97246 28.80230 4998 ft 139 kts 139°
2026-05-04 18:29 40.96531 28.81004 4999 ft 123 kts 106°
2026-05-04 18:29 40.96324 28.81989 5001 ft 104 kts 73°
2026-05-04 18:29 40.96343 28.82913 4998 ft 101 kts 67°
2026-05-04 18:30 40.96455 28.84768 4998 ft 100 kts 66°
2026-05-04 18:30 40.96520 28.85691 4997 ft 101 kts 65°
2026-05-04 18:30 40.96585 28.86613 4996 ft 101 kts 65°
2026-05-04 18:31 40.96652 28.87530 4995 ft 101 kts 65°
2026-05-04 18:31 40.96723 28.88466 5001 ft 103 kts 65°
2026-05-04 18:31 40.96799 28.89426 5004 ft 107 kts 66°
2026-05-04 18:31 40.96874 28.90428 5007 ft 109 kts 66°
2026-05-04 18:32 40.96946 28.91430 5008 ft 110 kts 66°
2026-05-04 18:32 40.97021 28.92451 5009 ft 111 kts 67°
2026-05-04 18:32 40.97094 28.93458 5009 ft 111 kts 67°
2026-05-04 18:32 40.97169 28.94488 5009 ft 111 kts 66°
2026-05-04 18:33 40.97243 28.95495 5008 ft 111 kts 66°
2026-05-04 18:33 40.97317 28.96506 5009 ft 110 kts 66°
2026-05-04 18:33 40.97393 28.97526 5008 ft 111 kts 66°
2026-05-04 18:33 40.97470 28.98555 5007 ft 112 kts 66°
2026-05-04 18:34 40.97545 28.99574 5006 ft 112 kts 67°
2026-05-04 18:34 40.97620 29.00602 5005 ft 112 kts 67°
2026-05-04 18:34 40.97695 29.01622 5006 ft 112 kts 66°
2026-05-04 18:34 40.97771 29.02656 5006 ft 112 kts 66°
2026-05-04 18:35 40.97845 29.03674 5005 ft 112 kts 67°
2026-05-04 18:35 40.97921 29.04698 5004 ft 112 kts 67°
2026-05-04 18:35 40.97996 29.05722 5005 ft 112 kts 68°
2026-05-04 18:35 40.98072 29.06753 5004 ft 113 kts 68°
2026-05-04 18:36 40.98148 29.07788 5005 ft 113 kts 68°
2026-05-04 18:36 40.98223 29.08834 5005 ft 113 kts 68°
2026-05-04 18:36 40.98297 29.09870 5005 ft 112 kts 67°
2026-05-04 18:36 40.98371 29.10895 5004 ft 112 kts 67°
2026-05-04 18:37 40.98447 29.11930 5005 ft 112 kts 67°
2026-05-04 18:37 40.98523 29.12958 5003 ft 113 kts 67°
2026-05-04 18:37 40.98597 29.13983 5000 ft 113 kts 67°
2026-05-04 18:37 40.98673 29.15030 5000 ft 113 kts 67°
2026-05-04 18:38 40.98748 29.16072 4999 ft 113 kts 68°
2026-05-04 18:38 40.98822 29.17103 4998 ft 113 kts 67°
2026-05-04 18:38 40.98897 29.18143 4999 ft 113 kts 68°
2026-05-04 18:38 40.98971 29.19182 4999 ft 113 kts 67°
2026-05-04 18:39 40.99045 29.20216 4998 ft 113 kts 67°
2026-05-04 18:39 40.99122 29.21262 4993 ft 114 kts 68°
2026-05-04 18:39 40.99197 29.22300 4992 ft 114 kts 68°
2026-05-04 18:39 40.99271 29.23342 4991 ft 113 kts 68°
2026-05-04 18:40 40.99345 29.24384 4988 ft 113 kts 68°
2026-05-04 18:40 40.99419 29.25416 4989 ft 113 kts 69°
2026-05-04 18:40 40.99494 29.26466 4988 ft 113 kts 68°
2026-05-04 18:40 40.99567 29.27497 4988 ft 114 kts 68°
2026-05-04 18:41 40.99642 29.28541 4990 ft 114 kts 68°
2026-05-04 18:41 40.99715 29.29590 4989 ft 113 kts 68°
2026-05-04 18:41 40.99789 29.30624 4992 ft 113 kts 68°
2026-05-04 18:41 40.99863 29.31665 4996 ft 114 kts 68°
2026-05-04 18:42 40.99939 29.32719 4987 ft 114 kts 68°
2026-05-04 18:42 41.00010 29.33756 4986 ft 113 kts 68°
2026-05-04 18:42 41.00085 29.34801 4989 ft 113 kts 68°
2026-05-04 18:42 41.00158 29.35827 4988 ft 114 kts 68°
2026-05-04 18:43 41.00232 29.36872 4990 ft 114 kts 68°
2026-05-04 18:43 41.00307 29.37922 4985 ft 115 kts 69°
2026-05-04 18:43 41.00359 29.38986 4983 ft 119 kts 76°
2026-05-04 18:43 41.00260 29.40095 4987 ft 123 kts 82°
2026-05-04 18:44 41.00119 29.41220 4991 ft 123 kts 83°
2026-05-04 18:44 41.00026 29.41971 4947 ft 124 kts 84°
2026-05-04 18:44 40.99836 29.43421 4787 ft 117 kts 84°
2026-05-04 18:44 40.99701 29.44482 4674 ft 115 kts 82°
2026-05-04 18:45 40.99574 29.45518 4558 ft 114 kts 83°
2026-05-04 18:45 40.99448 29.46551 4442 ft 114 kts 83°
2026-05-04 18:45 40.99323 29.47586 4321 ft 115 kts 84°
2026-05-04 18:45 40.99195 29.48633 4190 ft 116 kts 85°
2026-05-04 18:46 40.99065 29.49691 4056 ft 116 kts 84°
2026-05-04 18:46 40.98933 29.50749 3924 ft 116 kts 84°
2026-05-04 18:46 40.98801 29.51806 3795 ft 117 kts 85°
2026-05-04 18:46 40.98671 29.52869 3668 ft 117 kts 85°
2026-05-04 18:47 40.98539 29.53942 3548 ft 118 kts 85°
2026-05-04 18:47 40.98223 29.54932 3535 ft 124 kts 122°
2026-05-04 18:47 40.97478 29.55529 3523 ft 126 kts 162°
2026-05-04 18:47 40.96635 29.55489 3528 ft 120 kts 205°
2026-05-04 18:48 40.96001 29.54867 3523 ft 107 kts 248°
2026-05-04 18:48 40.95816 29.54007 3517 ft 92 kts 282°
2026-05-04 18:48 40.95849 29.53172 3515 ft 90 kts 287°
2026-05-04 18:48 40.95876 29.52349 3528 ft 91 kts 281°
2026-05-04 18:49 40.95816 29.51489 3537 ft 95 kts 274°
2026-05-04 18:49 40.95675 29.50599 3454 ft 105 kts 269°
2026-05-04 18:49 40.95456 29.49640 3317 ft 114 kts 264°
2026-05-04 18:49 40.95166 29.48624 3138 ft 114 kts 260°
2026-05-04 18:50 40.94868 29.47712 2964 ft 104 kts 259°
2026-05-04 18:50 40.94579 29.46872 2813 ft 98 kts 258°
2026-05-04 18:50 40.94293 29.46065 2663 ft 94 kts 259°
2026-05-04 18:50 40.94017 29.45294 2528 ft 91 kts 258°
2026-05-04 18:51 40.93745 29.44541 2389 ft 89 kts 258°
2026-05-04 18:51 40.93478 29.43806 2250 ft 88 kts 257°
2026-05-04 18:51 40.93212 29.43079 2111 ft 87 kts 256°
2026-05-04 18:51 40.92950 29.42368 1981 ft 83 kts 255°
2026-05-04 18:52 40.92702 29.41689 1850 ft 82 kts 256°
2026-05-04 18:52 40.92454 29.41014 1705 ft 81 kts 255°
2026-05-04 18:52 40.92214 29.40362 1576 ft 78 kts 254°
2026-05-04 18:52 40.91980 29.39730 1465 ft 74 kts 252°
2026-05-04 18:53 40.91757 29.39122 1343 ft 71 kts 253°
2026-05-04 18:53 40.91541 29.38540 1224 ft 71 kts 252°
2026-05-04 18:53 40.91328 29.37962 1137 ft 69 kts 252°
2026-05-04 18:53 40.91114 29.37381 1002 ft 72 kts 251°
2026-05-04 18:54 40.90890 29.36782 924 ft 78 kts 249°
2026-05-04 18:54 40.90654 29.36150 782 ft 72 kts 251°
2026-05-04 18:54 40.90447 29.35578 656 ft 62 kts 251°
2026-05-04 18:54 40.90260 29.35079 584 ft 61 kts 245°
2026-05-04 18:55 40.90069 29.34574 466 ft 58 kts 250°
2026-05-04 18:55 40.89730 29.33637 306 ft 48 kts 246°
2026-05-04 18:55 40.89608 29.33302 302 ft 34 kts 238°
2026-05-04 18:56 40.89621 29.33215 301 ft 6 kts 32°
2026-05-04 18:56 40.89671 29.33257 303 ft 10 kts 34°
2026-05-04 18:56 40.89741 29.33321 305 ft 14 kts 17°
2026-05-04 18:56 40.89784 29.33227 304 ft 19 kts 249°
2026-05-04 18:57 40.89733 29.33044 303 ft 19 kts 253°
2026-05-04 18:57 40.89659 29.32896 301 ft 21 kts 259°
2026-05-04 18:57 40.89590 29.32696 300 ft 26 kts 239°
2026-05-04 18:57 40.89506 29.32467 299 ft 26 kts 243°
2026-05-04 18:58 40.89556 29.32344 299 ft 20 kts 352°
2026-05-04 18:58 40.89694 29.32280 303 ft 21 kts 332°
2026-05-04 18:58 40.89832 29.32191 308 ft 20 kts 342°
2026-05-04 18:58 40.89893 29.32266 309 ft 8 kts 56°
2026-05-04 18:59 40.89904 29.32294 309 ft 0 kts 65°